Regional Weather Roundup
Issued by NWS

Home | Current Version | Previous Version | Graphics & Text | Print | Product List | Glossary On
Versions: 1 2 3 4 5 6 7 8 9 10 11 12 13 14 15 16 17 18 19 20 21 22 23 24 25 26 27 28 29 30 31 32 33 34 35 36 37 38 39 40 41 42 43 44 45 46 47 48 49 50
000
ASUS44 KMEG 281910
RWRTN
TENNESSEE HOURLY STATE WEATHER ROUNDUP
NATIONAL WEATHER SERVICE MEMPHIS TN
200 PM CDT FRI APR 28 2017

TNZ002-004-019-021-049-052-054-088>092-282000-
WEST TENNESSEE

CITY           SKY/WX    TMP DP  RH WIND       PRES   REMARKS
MEMPHIS INTL   CLOUDY    80  72  76 S16       29.78F
NWS MEMPHIS      N/A     78 N/A N/A MISG        N/A
JACKSON        CLOUDY    74  69  85 S9        29.83S
DYERSBURG      PTSUNNY   75  68  78 S15G22    29.79F
SOMERVILLE     PTSUNNY   77  70  78 S13       29.80F
UNION CITY     CLOUDY    73  66  78 S14       29.79S
BOLIVAR        PTSUNNY   79  72  78 S10G20    29.82F
PARIS          CLOUDY    66  64  94 S10       29.84F
HUNTINGDON     CLOUDY    72  68  88 S9        29.83F
LEXINGTON      PTSUNNY   77  70  78 S13       29.84F
SAVANNAH       PTSUNNY   79  70  73 S15G23    29.85F
$$

TNZ008-025-027-028-033-062-065-066-282000-
NORTH MIDDLE TENNESSEE

CITY           SKY/WX    TMP DP  RH WIND       PRES   REMARKS
NASHVILLE      CLOUDY    79  66  64 S14G23    29.91F
PORTLAND       CLOUDY    77  66  69 S14       29.91F
CLARKSVILLE    LGT RAIN  71  66  84 S7        29.86F
SMYRNA         CLOUDY    78  67  68 S8G17     29.92F
COOKEVILLE     PTSUNNY   79  63  57 SW12G22   29.95S
GALLATIN       CLOUDY    77  66  69 S9        29.94F
CROSSVILLE     CLOUDY    75  62  64 S12G18    30.01F
$$

TNZ061-075-076-078-094-096-097-282000-
SOUTH MIDDLE TENNESSEE

CITY           SKY/WX    TMP DP  RH WIND       PRES   REMARKS
TULLAHOMA      PTSUNNY   77  64  65 S10       29.96F
WINCHESTER     PTSUNNY   79  66  65 S12       29.96F
MCMINNVILLE    CLOUDY    79  66  65 VRB5      29.97S
COLUMBIA       PTSUNNY   73  73 100 S6        29.90R
SHELBYVILLE    PTSUNNY   81  70  69 S14       29.94F
$$

TNZ017-018-042-046-047-282000-
NORTHEAST TENNESSEE

CITY           SKY/WX    TMP DP  RH WIND       PRES   REMARKS
TRI CITIES     MOSUNNY   82  53  36 NW7       30.01S
ELIZABETHTON   SUNNY     86  52  30 VRB5      29.99S
$$

TNZ012-013-036-069-073-074-282000-
CENTRAL EAST TENNESSEE

CITY           SKY/WX    TMP DP  RH WIND       PRES   REMARKS
KNOXVILLE      PTSUNNY   82  64  54 SW9       29.97F
OAK RIDGE      MOSUNNY   80  64  58 VRB7      30.00S
DOWNTOWN KNOXV MOSUNNY   82  66  57 W7G14     29.98S
GATLINBURG     SUNNY     81  59  47 NE5       29.97F
MORRISTOWN     SUNNY     79  61  53 CALM      29.99F
JACKSBORO      MOSUNNY   79  63  57 S13G21    30.01F
$$

TNZ083-085-099-282000-
SOUTHEAST TENNESSEE

CITY           SKY/WX    TMP DP  RH WIND       PRES   REMARKS
CHATTANOOGA    PTSUNNY   81  66  60 S12       29.98F
$$

SKY/WX REPORTED AS FAIR MEANS FEW OR NO CLOUDS BELOW
12 THOUSAND FEET.




USA.gov is the U.S. government's official web portal to all federal, state and local government web resources and services.